Hourly Weather Roundup
Issued by NWS Central Illinois

Home | Current Version | Previous Version | Text Only | Print | Product List | Glossary On
Versions: 1 2 3 4 5 6 7 8 9 10 11 12 13 14 15 16 17 18 19 20 21 22 23 24 25 26 27 28 29 30 31 32 33 34 35 36 37 38 39 40 41 42 43 44 45 46 47 48 49 50
000
NZUS43 KILX 211110
HWRILX

AREA WEATHER ROUNDUP
NATIONAL WEATHER SERVICE, LINCOLN IL
500 AM CST SUN DEC 21 2014


CITY           SKY/WX    TMP DP  RH WIND       PRES   REMARKS
BLOOMINGTON    CLOUDY    32  30  92 S10       30.21S WCI  24
CHAMPAIGN      CLOUDY    32  27  81 S6        30.24R WCI  26
DECATUR        CLOUDY    33  29  85 S8        30.23R WCI  26
FLORA          CLEAR     31  27  86 SE3       30.27R
GALESBURG      CLOUDY    34  33  95 SE3       30.15F FOG
JACKSONVILLE   CLOUDY    40  34  81 S7        30.18F WCI  35
LACON          CLOUDY    33  29  84 S5        30.18F WCI  29
LAWRENCEVILLE  CLEAR     24  22  91 NE5       30.29R FOG     WCI  18
LITCHFIELD     CLOUDY    35  31  83 SE5       30.21S WCI  31
$$


CITY           SKY/WX    TMP DP  RH WIND       PRES   REMARKS
LINCOLN        CLOUDY    35  32  89 S7        30.22S WCI  29
MACOMB         CLOUDY    36  34  94 S7        30.18S FOG     WCI  30
MATTOON        CLOUDY    31  26  82 SE10      30.24R WCI  22
MT CARMEL AP   CLEAR     27  23  86 CALM      30.28S FOG
OLNEY-NOBLE AP MOCLDY    28  27  93 CALM      30.27R
PARIS          CLOUDY    29  27  95 SE5       30.27R FOG     WCI  23
PEORIA         CLOUDY    36  29  75 SE6       30.19F WCI  31
PONTIAC        CLOUDY    33  31  92 SE7       30.22S WCI  27
RANTOUL        CLOUDY    32  30  92 S3        30.24R FOG
ROBINSON       PTCLDY    22  21  98 SE5       30.29S FOG     WCI  15
SPRINGFIELD    CLOUDY    37  31  78 S9        30.20F WCI  30
TAYLORVILLE    CLOUDY    34  32  93 SE9       30.22S WCI  26
$$

...REGIONAL REPORTS...


CITY           SKY/WX    TMP DP  RH WIND       PRES   REMARKS
CHICAGO O`HARE CLOUDY    32  27  81 S7        30.21S WCI  26
KANKAKEE       CLOUDY    32  28  84 SE7       30.23F WCI  26
MOLINE         CLOUDY    35  32  88 SE5       30.13F FOG     WCI  31
MOUNT VERNON   MOCLDY    28  23  80 CALM      30.26R
PITTSFIELD     CLOUDY    38  35  89 SE5       30.18S WCI  34
QUINCY         CLOUDY    38  34  85 S7        30.15F WCI  33
ROCKFORD       CLOUDY    32  29  88 S7        30.18F WCI  26
$$


CITY           SKY/WX    TMP DP  RH WIND       PRES   REMARKS
BURLINGTON     CLOUDY    37  34  89 S6        30.13F WCI  32
CEDAR RAPIDS   CLOUDY    34  34 100 S10       30.06F FOG     WCI  26
DES MOINES     CLOUDY    38  34  85 S13       30.01F WCI  30
KIRKSVILLE     CLOUDY    39  35  86 S7        30.11F WCI  34
OTTUMWA        CLOUDY    37  34  89 S10       30.07F WCI  30
ST LOUIS       CLOUDY    41  33  73 SE7       30.20S
$$


CITY           SKY/WX    TMP DP  RH WIND       PRES   REMARKS
TERRE HAUTE    CLEAR     23  21  92 SE5       30.28S FOG     WCI  17
EVANSVILLE     CLEAR     27  23  85 NE5       30.28S FOG     WCI  22
INDIANAPOLIS   CLEAR     22  20  92 E5        30.26F FOG     WCI  16
LAFAYETTE      PTCLDY    26  23  88 SE5       30.26F WCI  20
MADISON        LGT SNOW  31  29  92 S12       30.13F FOG     WCI  22
MILWAUKEE      CLOUDY    32  26  78 S7        30.19F WCI  26
$$




USA.gov is the U.S. government's official web portal to all federal, state and local government web resources and services.